ラーソン彗星

P/2014 E1 ( Larson )

English version
Home page
Updated on June 11, 2016

---------------------------------------------------------------------

・ プロフィール

発見日 2014年3月10日
発見光度 16.8等
発見者 Stephen M. Larson (Catalina Sky Survey)

・ 写真集

・ 軌道要素

Epoch 2014 May 23.0 TT = JDT 2456800.5
T 2014 May 22.02045 TT                                  MPCW
q   2.1411172            (2000.0)            P               Q
n   0.13781301     Peri.  185.81670     -0.71073514     +0.68170915
a   3.7120108      Node    39.08928     -0.63380632     -0.51351140
e   0.4231921      Incl.   15.97892     -0.30519684     -0.52113211
P   7.15
From 356 observations 2014 Jan. 6-Aug. 27, mean residual 0".5.

・ 星図

・ 光度変化

        m1 = 11.0 + 5 logΔ + 15.0 log r

---------------------------------------------------------------------

軌道要素はM.P.E.C. 2014-Y44に掲載されたものです。
星図はステラナビゲータ Ver.8 (アストロアーツ) で作成したものです。
光度グラフはComet for Windowsで作成したものです。

---------------------------------------------------------------------

Copyright(C) Seiichi Yoshida (comet@aerith.net). All rights reserved.